Silver City, NM

9:41 PM MST on December 06, 2019 (GMT -0700)
Grant County

Weather History for KSVC - October, 2019

Change the Weather History Date:

Sunday, October 20, 2019

  Actual Average (KDMN) Record (KDMN)
Temperature  
Mean Temperature 54 °F -  
Max Temperature 71 °F 73 °F 89 °F (2003)
Min Temperature 37 °F 43 °F 30 °F (1966)
Degree Days  
Heating Degree Days 12    
Growing Degree Days 4 (Base 50)    
Moisture  
Dew Point 20 °F    
Average Humidity 28    
Maximum Humidity 53    
Minimum Humidity 13    
Precipitation  
Precipitation 0.00 in - - ()
Sea Level Pressure  
Sea Level Pressure 29.97 in    
Wind  
Wind Speed 13 mph (NW)    
Max Wind Speed 26 mph    
Max Gust Speed 39 mph    
Visibility 10 miles    
Events      
Averages and records for this station are not official NWS values.
T = Trace of Precipitation, MM = Missing Value Source: NWS Daily Summary

Daily Weather History Graph

Daily Weather History Graph

Search for Another Location

Airport or City:

Astronomy

Oct. 20, 2019 Rise Set
Actual Time 7:20 AM MDT 6:34 PM MDT
Civil Twilight 6:55 AM MDT 6:59 PM MDT
Nautical Twilight 6:26 AM MDT 7:27 PM MDT
Astronomical Twilight 5:58 AM MDT 7:56 PM MDT
Moon 11:58 PM MDT (10/20) 1:37 PM MDT (10/20)
Length of Visible Light 12h 03m
Length of Day
11h 13m
Waning Gibbous, 58% of the Moon is Illuminated
Oct 20
Waning Gibbous
Oct 21
Last Quarter
Oct 27
New
Nov 4
First Quarter
Nov 12
Full

Hourly Weather History & Observations

Time (MDT) Temp. Windchill Dew Point Humidity Pressure Visibility Wind Dir Wind Speed Gust Speed Precip Events Conditions
12:15 AM 44.2 °F 38.8 °F 27.3 °F 51% 29.98 in 10.0 mi NNW 10.4 mph - N/A   Clear
12:35 AM 46.9 °F - 27.1 °F 46% 29.98 in 10.0 mi NW 10.4 mph - N/A   Clear
12:55 AM 48.4 °F - 27.5 °F 44% 29.98 in 10.0 mi NNW 11.5 mph - N/A   Clear
1:15 AM 49.1 °F - 27.5 °F 43% 29.98 in 10.0 mi NW 10.4 mph - N/A   Clear
1:35 AM 47.3 °F - 27.3 °F 46% 29.98 in 10.0 mi NW 10.4 mph - N/A   Clear
1:55 AM 48.0 °F - 27.3 °F 45% 29.98 in 10.0 mi NW 10.4 mph - N/A   Clear
2:15 AM 48.2 °F - 27.1 °F 44% 29.98 in 10.0 mi NW 10.4 mph - N/A   Clear
2:35 AM 47.8 °F - 27.0 °F 44% 29.97 in 10.0 mi NW 11.5 mph - N/A   Clear
2:55 AM 46.8 °F - 26.6 °F 45% 29.96 in 10.0 mi NW 11.5 mph - N/A   Clear
3:15 AM 46.6 °F - 26.6 °F 46% 29.96 in 10.0 mi NNW 11.5 mph - N/A   Clear
3:35 AM 47.5 °F - 26.1 °F 43% 29.96 in 10.0 mi NNW 11.5 mph - N/A   Clear
3:55 AM 46.8 °F - 25.2 °F 43% 29.95 in 10.0 mi NW 10.4 mph - N/A   Clear
4:15 AM 44.6 °F 39.2 °F 24.8 °F 46% 29.95 in 10.0 mi WNW 10.4 mph - N/A   Clear
4:35 AM 44.6 °F 39.2 °F 24.6 °F 45% 29.95 in 10.0 mi WNW 10.4 mph - N/A   Clear
4:55 AM 43.7 °F 37.7 °F 24.1 °F 46% 29.95 in 10.0 mi WNW 11.5 mph - N/A   Clear
5:15 AM 46.9 °F - 23.0 °F 39% 29.95 in 10.0 mi NW 10.4 mph - N/A   Clear
5:35 AM 42.8 °F 36.6 °F 22.6 °F 45% 29.95 in 10.0 mi NNW 11.5 mph - N/A   Clear
5:55 AM 42.8 °F 37.0 °F 22.6 °F 45% 29.96 in 10.0 mi NW 10.4 mph - N/A   Clear
6:15 AM 42.1 °F 37.7 °F 22.1 °F 45% 29.95 in 10.0 mi NNW 6.9 mph - N/A   Clear
6:35 AM 38.5 °F 31.6 °F 22.1 °F 52% 29.95 in 10.0 mi NNW 10.4 mph - N/A   Clear
6:55 AM 41.5 °F 35.4 °F 21.9 °F 46% 29.96 in 10.0 mi NW 10.4 mph - N/A   Clear
7:15 AM 37.8 °F 30.7 °F 22.1 °F 53% 29.96 in 10.0 mi NNW 10.4 mph - N/A   Clear
7:35 AM 38.3 °F 31.9 °F 21.7 °F 51% 29.96 in 10.0 mi NNW 9.2 mph - N/A   Clear
7:55 AM 42.4 °F 36.5 °F 22.3 °F 45% 29.96 in 10.0 mi NNW 10.4 mph - N/A   Clear
8:15 AM 48.4 °F - 22.6 °F 36% 29.98 in 10.0 mi NNW 8.1 mph - N/A   Clear
8:35 AM 52.7 °F - 22.1 °F 30% 29.98 in 10.0 mi Calm Calm - N/A   Clear
8:55 AM 55.4 °F - 23.4 °F 29% 29.98 in 10.0 mi NW 10.4 mph - N/A   Clear
9:15 AM 57.7 °F - 21.4 °F 24% 30.00 in 10.0 mi NW 13.8 mph - N/A   Clear
9:35 AM 59.5 °F - 19.8 °F 21% 30.00 in 10.0 mi WNW 15.0 mph - N/A   Clear
9:55 AM 61.5 °F - 17.4 °F 18% 29.99 in 10.0 mi WNW 20.7 mph 25.3 mph N/A   Clear
10:15 AM 62.2 °F - 16.2 °F 17% 29.99 in 10.0 mi NW 21.9 mph 34.5 mph N/A   Clear
10:35 AM 63.9 °F - 14.2 °F 15% 29.98 in 10.0 mi WNW 24.2 mph 34.5 mph N/A   Clear
11:15 AM 65.5 °F - 16.3 °F 15% 29.99 in 10.0 mi WNW 23.0 mph 29.9 mph N/A   Clear
11:35 AM 66.4 °F - 16.7 °F 15% 29.99 in 10.0 mi WNW 26.5 mph 35.7 mph N/A   Clear
11:55 AM 67.1 °F - 16.7 °F 14% 29.99 in 10.0 mi WNW 25.3 mph 39.1 mph N/A   Clear
12:15 PM 67.8 °F - 17.1 °F 14% 29.99 in 10.0 mi WNW 24.2 mph 33.4 mph N/A   Clear
12:35 PM 68.4 °F - 17.6 °F 14% 29.99 in 10.0 mi West 26.5 mph 32.2 mph N/A   Clear
12:55 PM 68.5 °F - 16.9 °F 14% 29.98 in 10.0 mi West 26.5 mph 32.2 mph N/A   Clear
1:15 PM 69.1 °F - 16.0 °F 13% 29.97 in 10.0 mi West 25.3 mph 34.5 mph N/A   Clear
1:35 PM 69.1 °F - 15.6 °F 13% 29.96 in 10.0 mi West 21.9 mph 32.2 mph N/A   Clear
1:55 PM 69.8 °F - 16.3 °F 13% 29.95 in 10.0 mi WNW 19.6 mph 28.8 mph N/A   Clear
2:15 PM 70.7 °F - 17.1 °F 13% 29.94 in 10.0 mi West 23.0 mph 32.2 mph N/A   Clear
2:35 PM 70.2 °F - 16.7 °F 13% 29.94 in 10.0 mi WNW 23.0 mph 32.2 mph N/A   Clear
2:55 PM 70.5 °F - 17.1 °F 13% 29.94 in 10.0 mi West 21.9 mph 31.1 mph N/A   Clear
3:15 PM 70.7 °F - 17.2 °F 13% 29.94 in 10.0 mi West 26.5 mph 34.5 mph N/A   Clear
3:35 PM 70.3 °F - 17.4 °F 13% 29.93 in 10.0 mi West 23.0 mph 34.5 mph N/A   Clear
3:55 PM 69.6 °F - 16.9 °F 13% 29.93 in 10.0 mi West 20.7 mph 32.2 mph N/A   Clear
4:15 PM 70.2 °F - 17.4 °F 13% 29.94 in 10.0 mi West 26.5 mph 32.2 mph N/A   Clear
4:35 PM 69.4 °F - 17.1 °F 14% 29.94 in 10.0 mi West 24.2 mph 28.8 mph N/A   Clear
4:55 PM 69.1 °F - 16.5 °F 13% 29.94 in 10.0 mi West 21.9 mph 31.1 mph N/A   Clear
5:15 PM 68.4 °F - 16.7 °F 14% 29.94 in 10.0 mi West 21.9 mph 26.5 mph N/A   Clear
5:35 PM 67.8 °F - 16.7 °F 14% 29.93 in 10.0 mi West 17.3 mph 25.3 mph N/A   Clear
5:55 PM 67.1 °F - 16.5 °F 14% 29.94 in 10.0 mi West 18.4 mph - N/A   Clear
6:15 PM 65.1 °F - 16.5 °F 15% 29.95 in 10.0 mi West 13.8 mph 19.6 mph N/A   Clear
6:35 PM 63.1 °F - 15.8 °F 16% 29.96 in 10.0 mi WSW 6.9 mph - N/A   Clear
6:55 PM 61.7 °F - 15.3 °F 16% 29.96 in 10.0 mi WSW 5.8 mph - N/A   Clear
7:15 PM 59.2 °F - 15.4 °F 18% 29.97 in 10.0 mi WNW 3.5 mph - N/A   Clear
7:35 PM 56.1 °F - 15.3 °F 20% 29.98 in 10.0 mi NNW 3.5 mph - N/A   Clear
7:55 PM 52.9 °F - 15.8 °F 23% 29.98 in 10.0 mi NNW 6.9 mph - N/A   Clear
8:15 PM 52.3 °F - 15.8 °F 24% 29.99 in 10.0 mi NW 9.2 mph - N/A   Clear
8:35 PM 50.2 °F - 15.8 °F 26% 29.99 in 10.0 mi NNW 9.2 mph - N/A   Clear
8:55 PM 50.2 °F - 16.3 °F 26% 30.00 in 10.0 mi NNW 9.2 mph - N/A   Clear
9:15 PM 51.6 °F - 16.5 °F 25% 30.00 in 10.0 mi North 9.2 mph - N/A   Clear
9:35 PM 51.4 °F - 16.5 °F 25% 30.01 in 10.0 mi NNW 10.4 mph - N/A   Clear
9:55 PM 52.7 °F - 15.8 °F 23% 30.01 in 10.0 mi NNW 10.4 mph - N/A   Clear
10:15 PM 51.8 °F - 15.8 °F 24% 30.02 in 10.0 mi North 10.4 mph - N/A   Clear
10:35 PM 48.7 °F - 16.7 °F 28% 30.03 in 10.0 mi NNW 11.5 mph - N/A   Clear
10:55 PM 49.5 °F - 16.5 °F 27% 30.04 in 10.0 mi NNW 10.4 mph - N/A   Clear
11:15 PM 45.3 °F 40.1 °F 17.4 °F 33% 30.04 in 10.0 mi NNW 10.4 mph - N/A   Clear
11:35 PM 43.3 °F 37.7 °F 18.0 °F 36% 30.04 in 10.0 mi NNW 10.4 mph - N/A   Clear
11:55 PM 42.6 °F 37.2 °F 18.5 °F 38% 30.05 in 10.0 mi NNW 9.2 mph - N/A   Clear